This is the latest recevied weather packets stored in our database for station/object KC8JWT. If no packets are shown the sender has not sent any weather packets the latest 10 day(s).
| Time | Temp. | Humidity | Pressure | Rain* | Wind** | Luminosity | Snow |
|---|---|---|---|---|---|---|---|
| 1777754291 | 12.22° C | 52% | 1015.1 hPa | 0 mm | - | 244 W/m² | - |
| 1777753989 | 12.22° C | 53% | 1015.5 hPa | 0 mm | - | 237 W/m² | - |
| 1777753689 | 12.78° C | 51% | 1015.1 hPa | 0 mm | - | 216 W/m² | - |
| 1777753387 | 12.22° C | 50% | 1015.3 hPa | 0 mm | - | 274 W/m² | - |
| 1777753085 | 12.78° C | 51% | 1015.3 hPa | 0 mm | - | 465 W/m² | - |
| 1777752780 | 12.78° C | 50% | 1015.2 hPa | 0 mm | - | 246 W/m² | - |
| 1777752477 | 12.78° C | 49% | 1015.3 hPa | 0 mm | - | 197 W/m² | - |
| 1777752173 | 13.89° C | 48% | 1015.3 hPa | 0 mm | - | 217 W/m² | - |
| 1777751871 | 14.44° C | 49% | 1015.3 hPa | 0 mm | - | 572 W/m² | - |
| 1777751568 | 14.44° C | 44% | 1015.5 hPa | 0 mm | - | 326 W/m² | - |
| 1777751264 | 15.56° C | 45% | 1015.5 hPa | 0 mm | - | 271 W/m² | - |
| 1777750961 | 16.11° C | 44% | 1015.3 hPa | 0 mm | - | 849 W/m² | - |
| 1777750657 | 15° C | 51% | 1015.2 hPa | 0 mm | - | 825 W/m² | - |
| 1777750355 | 13.33° C | 46% | 1015.3 hPa | 0 mm | - | 764 W/m² | - |
| 1777750054 | 13.89° C | 50% | 1015.8 hPa | 0 mm | - | 797 W/m² | - |
| 1777749752 | 13.89° C | 48% | 1015.6 hPa | 0 mm | - | 211 W/m² | - |
| 1777749449 | 13.33° C | 46% | 1015.8 hPa | 0 mm | - | 232 W/m² | - |
| 1777749147 | 13.89° C | 47% | 1015.8 hPa | 0 mm | - | 232 W/m² | - |
| 1777748844 | 13.33° C | 48% | 1015.7 hPa | 0 mm | - | 311 W/m² | - |
| 1777748541 | 12.78° C | 49% | 1015.9 hPa | 0 mm | - | 313 W/m² | - |
| 1777748241 | 12.78° C | 47% | 1015.8 hPa | 0 mm | - | 290 W/m² | - |
| 1777747938 | 13.89° C | 46% | 1015.6 hPa | 0 mm | - | 213 W/m² | - |
| 1777747634 | 13.89° C | 48% | 1015.9 hPa | 0 mm | - | 290 W/m² | - |
| 1777747329 | 15° C | 46% | 1016 hPa | 0 mm | - | 279 W/m² | - |
| 1777747027 | 15.56° C | 47% | 1015.6 hPa | 0 mm | - | 861 W/m² | - |
* Rain latest hour (hover to see other rain measurements)
** Current wind speed in m/s (hover to see current wind gust speed)